Snowfall_Accumulation
0.0 0.0 0.0 0.0 0.0 0.0 0.0 0.0 0.0 nan nan nan nan nan nan nan nan nan nan nan nan nan nan nan nan nan nan
0.0 0.1 0.0 0.0 0.0 0.0 0.0 0.0 0.0 nan nan nan nan nan nan nan nan nan nan nan nan nan nan nan nan nan nan
0.1 0.0 0.0 0.0 0.0 0.0 0.0 0.0 0.0 nan nan nan nan nan nan nan nan nan nan nan nan nan nan nan nan nan nan
0.0 0.1 0.0 0.0 0.0 0.0 0.0 0.0 0.0 0.0 nan nan nan nan nan nan nan nan nan nan nan nan nan nan nan nan nan
0.1 0.2 0.0 0.0 0.0 0.0 0.0 0.0 0.0 0.0 0.0 0.0 0.0 0.0 0.0 nan nan nan nan nan nan nan nan nan nan nan nan
0.3 0.0 0.0 0.0 0.0 0.0 0.1 0.3 0.4 0.0 0.0 0.0 0.0 0.0 0.0 0.0 nan nan nan nan nan nan nan nan nan nan nan
0.0 0.0 0.0 0.0 0.0 0.1 0.0 0.2 0.1 0.0 0.0 0.0 0.0 0.0 0.0 0.0 nan nan nan nan nan nan nan nan nan nan nan
0.0 0.0 0.0 0.0 0.0 0.0 0.0 0.0 0.0 0.0 0.0 0.6 0.0 0.0 0.0 0.0 nan nan nan nan nan nan nan nan nan nan nan
nan nan nan nan nan 0.1 0.4 0.6 0.3 0.1 0.0 0.2 0.2 0.2 0.1 0.0 0.0 nan nan nan nan nan nan nan nan nan 0.0
0.0 0.0 nan nan nan 0.0 0.3 1.6 1.1 0.9 0.2 1.4 0.5 0.6 2.1 0.2 0.2 0.0 0.0 nan nan nan nan nan nan 0.0 0.0
0.0 0.0 0.0 0.0 0.0 0.0 0.0 1.4 2.9 1.9 0.2 1.5 3.3 1.1 1.6 1.5 0.5 0.3 0.2 0.1 0.1 0.1 nan nan nan 0.0 0.2
0.1 0.3 0.5 0.6 0.5 0.4 0.1 0.2 0.4 1.2 0.2 0.7 10.0 3.4 5.1 3.7 2.0 1.1 0.9 0.4 0.7 1.0 0.7 nan nan nan nan
0.5 0.9 0.9 1.0 0.8 0.9 0.4 0.4 1.1 0.3 0.2 2.0 5.0 4.4 4.7 4.6 4.2 2.3 3.1 1.2 0.7 1.2 0.7 0.7 0.6 0.3 0.4
0.7 0.5 0.8 2.4 2.0 1.8 4.3 3.8 4.7 3.7 1.1 1.8 2.4 3.0 5.8 2.4 3.3 4.1 2.2 6.7 1.5 0.9 0.6 0.5 0.2 0.1 0.0
1.4 1.8 2.2 3.0 3.4 3.6 5.4 6.9 8.4 6.8 6.9 4.0 1.3 0.7 1.7 2.5 7.4 2.6 2.6 2.8 2.0 1.7 1.6 1.7 0.5 0.2 0.0
1.6 1.9 3.5 5.0 6.2 7.9 8.5 9.3 10.1 7.2 7.3 7.7 7.5 8.8 5.3 3.4 2.6 3.8 2.8 3.1 2.8 1.0 0.8 3.0 1.7 0.2 0.0
3.8 4.9 5.7 6.1 6.9 8.5 8.8 7.8 8.1 6.6 7.0 7.4 12.8 13.0 14.2 10.0 2.0 nan 7.5 3.6 2.9 2.3 0.6 1.2 2.1 0.7 0.0
Water_Equivalent
0.00 0.00 0.00 0.00 0.00 0.00 0.00 0.00 0.00 nan nan nan nan nan nan nan nan nan nan nan nan nan nan nan nan nan nan
0.00 0.03 0.00 0.00 0.00 0.00 0.00 0.00 0.00 nan nan nan nan nan nan nan nan nan nan nan nan nan nan nan nan nan nan
0.03 0.00 0.00 0.00 0.00 0.00 0.00 0.00 0.00 nan nan nan nan nan nan nan nan nan nan nan nan nan nan nan nan nan nan
0.00 0.02 0.00 0.00 0.00 0.00 0.00 0.00 0.00 0.00 nan nan nan nan nan nan nan nan nan nan nan nan nan nan nan nan nan
0.05 0.08 0.02 0.00 0.00 0.00 0.00 0.00 0.00 0.00 0.00 0.00 0.00 0.00 0.00 nan nan nan nan nan nan nan nan nan nan nan nan
0.11 0.01 0.00 0.00 0.00 0.00 0.04 0.10 0.12 0.00 0.00 0.00 0.00 0.00 0.00 0.00 nan nan nan nan nan nan nan nan nan nan nan
0.00 0.00 0.00 0.00 0.01 0.03 0.02 0.08 0.04 0.00 0.00 0.00 0.00 0.00 0.00 0.00 nan nan nan nan nan nan nan nan nan nan nan
0.00 0.00 0.00 0.00 0.00 0.01 0.01 0.00 0.00 0.00 0.00 0.21 0.00 0.00 0.00 0.00 nan nan nan nan nan nan nan nan nan nan nan
nan nan nan nan nan 0.04 0.14 0.22 0.11 0.04 0.02 0.09 0.06 0.08 0.05 0.00 0.00 nan nan nan nan nan nan nan nan nan 0.00
0.00 0.00 nan nan nan 0.00 0.13 0.51 0.37 0.30 0.08 0.38 0.15 0.18 0.52 0.09 0.09 0.02 0.00 nan nan nan nan nan nan 0.00 0.00
0.00 0.00 0.00 0.00 0.00 0.01 0.00 0.46 0.91 0.62 0.07 0.44 0.82 0.31 0.45 0.35 0.16 0.12 0.08 0.03 0.03 0.05 nan nan nan 0.00 0.08
0.06 0.11 0.17 0.20 0.20 0.15 0.02 0.09 0.13 0.36 0.06 0.21 2.41 0.80 1.14 0.69 0.40 0.24 0.21 0.16 0.24 0.35 0.28 nan nan nan nan
0.20 0.32 0.32 0.36 0.26 0.27 0.11 0.12 0.31 0.10 0.08 0.54 1.24 1.07 1.07 1.00 0.73 0.42 0.61 0.34 0.25 0.39 0.24 0.28 0.23 0.12 0.14
0.19 0.18 0.29 0.63 0.54 0.50 1.01 0.93 1.12 0.83 0.33 0.55 0.64 0.81 1.23 0.55 0.72 0.72 0.46 1.22 0.43 0.34 0.23 0.19 0.08 0.02 0.02
0.35 0.44 0.58 0.77 0.85 0.91 1.26 1.53 1.82 1.28 1.10 0.82 0.31 0.18 0.43 0.55 1.23 0.52 0.49 0.57 0.56 0.56 0.41 0.49 0.21 0.06 0.00
0.42 0.49 0.84 1.13 1.32 1.58 1.74 1.77 1.81 1.26 1.26 1.18 1.15 1.23 1.00 0.70 0.62 0.70 0.56 0.63 0.68 0.32 0.26 0.64 0.45 0.09 0.00
0.96 1.18 1.28 1.32 1.43 1.52 1.56 1.41 1.34 1.13 1.18 1.13 1.66 1.80 1.73 1.18 0.39 nan 1.39 0.78 0.65 0.50 0.19 0.33 0.53 0.24 0.00
SL_Ratio
2.3 nan nan nan nan nan nan nan nan nan nan nan nan nan nan nan nan nan nan nan nan nan nan nan nan nan nan
2.7 2.5 nan nan nan nan nan nan nan nan nan nan nan nan nan nan nan nan nan nan nan nan nan nan nan nan nan
2.5 nan 2.0 nan nan nan nan nan nan nan nan nan nan nan nan nan nan nan nan nan nan nan nan nan nan nan nan
2.5 2.5 nan 2.5 nan nan nan nan nan nan nan nan nan nan nan nan nan nan nan nan nan nan nan nan nan nan nan
2.5 2.5 2.5 nan nan nan nan nan nan nan nan nan nan nan nan nan nan nan nan nan nan nan nan nan nan nan nan
2.5 2.6 nan nan nan nan 2.7 2.8 3.0 nan nan nan nan nan nan nan nan nan nan nan nan nan nan nan nan nan nan
nan nan nan nan 2.7 2.8 2.7 2.8 2.9 nan nan 3.3 nan nan nan nan nan nan nan nan nan nan nan nan nan nan nan
nan nan nan 0.0 nan 2.7 2.7 3.8 2.5 nan nan 3.0 nan nan nan nan nan nan nan nan nan nan nan nan nan nan nan
nan nan nan nan nan 2.5 2.6 2.8 2.7 2.5 2.5 2.6 2.5 2.6 2.5 2.5 nan nan nan nan nan nan nan nan nan nan nan
nan nan nan nan nan nan 2.7 3.1 3.0 3.1 2.5 3.6 3.2 3.4 4.0 2.5 2.5 2.5 nan nan nan nan nan nan nan nan 2.5
nan nan nan 2.3 nan 2.6 2.9 3.0 3.2 3.1 2.5 3.4 4.0 3.5 3.6 4.3 3.0 2.7 2.5 2.6 2.8 2.7 nan nan nan nan 2.5
2.5 2.5 2.8 2.8 2.6 2.5 2.7 2.8 2.8 3.2 2.9 3.2 4.1 4.2 4.5 5.4 5.1 4.3 4.1 2.8 2.9 2.9 2.6 nan nan nan nan
2.7 2.7 2.8 2.9 3.2 3.5 3.2 3.1 3.4 3.2 3.1 3.6 4.0 4.1 4.4 4.6 5.7 5.4 5.1 3.5 2.7 3.0 2.9 2.5 2.5 2.5 2.8
3.5 3.0 2.9 3.7 3.8 3.6 4.2 4.1 4.2 4.4 3.5 3.3 3.7 3.7 4.7 4.4 4.5 5.8 4.7 5.5 3.4 2.8 2.6 2.5 2.5 2.5 2.6
3.9 4.0 3.8 3.9 4.0 3.9 4.3 4.5 4.7 5.3 6.2 4.9 4.3 3.7 3.9 4.6 6.1 5.0 5.3 4.9 3.5 3.0 3.9 3.5 2.5 2.5 nan
3.9 3.9 4.2 4.4 4.7 5.0 4.9 5.3 5.6 5.7 5.8 6.5 6.5 7.1 5.3 4.8 4.3 5.4 5.0 4.9 4.0 3.2 3.2 4.6 3.8 2.5 nan
4.0 4.1 4.4 4.6 4.8 5.6 5.6 5.5 6.1 5.8 5.9 6.6 7.7 7.2 8.2 8.5 5.2 nan 5.4 4.7 4.5 4.6 3.4 3.8 4.0 2.7 0.0